Zurück zum Katalog

STARLINK-6126

AktivKommunikationVLEO
NORAD 56124·PAYLOAD·🇺🇸 United States

Gestartet Mar 29, 2023 von Cape Canaveral Space Force Station

Loading…

Nächste Überflüge (nächste 24 Stunden)

TLE

AktuellSource: CelesTrak SupGP

Epoche: Sep 15, 2026, 01:49 UTC

1 56124C 23046AH  26258.07618056  .00021322  00000+0  77250-3 0  2580
2 56124  42.9995 157.6014 0000934 247.3101  71.1283 15.27559189    11

Verfolge STARLINK-6126 in Echtzeit mit AllMySat

Download on the App Store